Date String (YYYY-MM-DD hh:mm:ss) UTC,Instrument flags,Ambient pressure (hPa),Sample flow (lpm),Bypass flow (lpm),Sample temperature (°C),Ambient temperature (°C),ASC tube jacket temperature (°C),LED temperature (°C),Box temperature (°C),Sample RH (%),Span deviation,Mass concentration (μg/m³),Mass concentration (μg/m³),Mass concentration (μg/m³)
DateTimeUTC,F1_M11,P_M11,Q1_M11,Q2_M11,T1_M11,T2_M11,T3_M11,T4_M11,T5_M11,U1_M11,ZSPAN_M11,X2_M11,X0_M11,X1_M11
2022-05-21 07:00:00,,0828.1,5.00,0.00,22.2,21.1,00.0,31.4,24.0,20.6,0000.0,0002.65,0002.80,0002.54
2022-05-21 07:01:00,,0828.0,5.00,0.00,22.2,21.1,00.0,31.4,24.0,20.7,0000.0,0002.62,0002.74,0002.52
2022-05-21 07:02:00,,0828.1,4.99,0.00,22.2,21.0,00.0,31.4,23.9,20.7,0000.0,0002.59,0002.71,0002.49
2022-05-21 07:03:00,,0828.2,5.01,0.00,22.2,21.0,00.0,31.4,23.9,20.7,0000.0,0002.62,0002.76,0002.48
2022-05-21 07:04:00,,0828.2,4.99,0.00,22.2,21.0,00.0,31.3,24.0,20.7,0000.0,0002.62,0002.76,0002.47
2022-05-21 07:05:00,,0828.2,5.01,0.00,22.2,21.1,00.0,31.3,24.1,20.7,0000.0,0002.64,0002.78,0002.46
2022-05-21 07:06:00,,0828.2,5.00,0.00,22.3,21.5,00.0,31.3,24.3,20.6,0000.0,0002.62,0002.76,0002.44
2022-05-21 07:07:00,,0828.2,4.99,0.00,22.4,21.9,00.0,31.3,24.5,20.5,0000.0,0002.60,0002.76,0002.42
2022-05-21 07:08:00,,0828.2,5.01,0.00,22.5,22.1,00.0,31.4,24.6,20.3,0000.0,0002.62,0002.85,0002.42
2022-05-21 07:09:00,,0828.2,5.00,0.00,22.6,22.2,00.0,31.4,24.6,20.3,0000.0,0002.59,0002.81,0002.39
2022-05-21 07:10:00,,0828.2,5.00,0.00,22.6,22.2,00.0,31.4,24.6,20.2,0000.0,0002.58,0002.85,0002.36
2022-05-21 07:11:00,,0828.2,5.00,0.00,22.6,22.1,00.0,31.4,24.6,20.2,0000.0,0002.56,0002.83,0002.34
2022-05-21 07:12:00,,0828.2,5.00,0.00,22.6,22.1,00.0,31.5,24.6,20.2,0000.0,0002.57,0002.85,0002.35
2022-05-21 07:13:00,,0828.2,5.00,0.00,22.6,22.0,00.0,31.5,24.6,20.2,0000.0,0002.58,0002.84,0002.36
2022-05-21 07:14:00,,0828.2,5.00,0.00,22.6,22.0,00.0,31.5,24.6,20.1,0000.0,0002.58,0002.84,0002.38
2022-05-21 07:15:00,,0828.2,5.00,0.00,22.6,21.9,00.0,31.5,24.6,20.1,0000.0,0002.55,0002.77,0002.38
2022-05-21 07:16:00,,0828.3,5.00,0.00,22.6,21.9,00.0,31.5,24.6,20.1,0000.0,0002.51,0002.70,0002.38
2022-05-21 07:17:00,,0828.3,5.00,0.00,22.7,21.8,00.0,31.5,24.6,20.1,0000.0,0002.53,0002.72,0002.39
2022-05-21 07:18:00,,0828.3,5.00,0.00,22.7,21.8,00.0,31.5,24.6,20.1,0000.0,0002.54,0002.70,0002.41
2022-05-21 07:19:00,,0828.2,5.00,0.00,22.7,21.8,00.0,31.5,24.6,20.1,0000.0,0002.56,0002.72,0002.43
2022-05-21 07:20:00,,0828.3,5.00,0.00,22.7,21.7,00.0,31.5,24.6,20.1,0000.0,0002.60,0002.76,0002.45
2022-05-21 07:21:00,,0828.2,5.01,0.00,22.7,21.7,00.0,31.5,24.6,20.1,0000.0,0002.60,0002.74,0002.45
2022-05-21 07:22:00,,0828.2,5.00,0.00,22.7,21.7,00.0,31.6,24.6,20.1,0000.0,0002.64,0002.92,0002.46
2022-05-21 07:23:00,,0828.4,5.00,0.00,22.7,21.7,00.0,31.6,24.5,20.1,0000.0,0002.65,0003.10,0002.46
2022-05-21 07:24:00,,0828.4,5.00,0.00,22.7,21.7,00.0,31.6,24.5,20.1,0000.0,0002.67,0003.16,0002.47
2022-05-21 07:25:00,,0828.4,5.00,0.00,22.7,21.7,00.0,31.6,24.5,20.8,0000.0,0002.67,0003.18,0002.45
2022-05-21 07:26:00,,0828.4,5.01,0.00,22.7,21.6,00.0,31.6,24.5,23.1,0000.0,0002.69,0003.23,0002.44
2022-05-21 07:27:00,,0828.4,5.00,0.00,22.7,21.6,00.0,31.6,24.5,22.5,0000.0,0002.69,0003.23,0002.44
2022-05-21 07:28:00,,0828.3,5.01,0.00,22.6,21.6,00.0,31.6,24.5,20.9,0000.0,0002.70,0003.24,0002.44
2022-05-21 07:29:00,,0828.3,5.00,0.00,22.6,21.6,00.0,31.6,24.5,20.6,0000.0,0002.74,0003.34,0002.47
2022-05-21 07:30:00,,0828.3,4.99,0.00,22.6,21.6,00.0,31.6,24.4,20.5,0000.0,0002.72,0003.39,0002.48
2022-05-21 07:31:00,,0828.3,5.00,0.00,22.6,21.5,00.0,31.6,24.4,20.5,0000.0,0002.76,0003.47,0002.51
2022-05-21 07:32:00,,0828.3,5.00,0.00,22.6,21.5,00.0,31.5,24.3,20.5,0000.0,0002.82,0003.52,0002.55
2022-05-21 07:33:00,,0828.3,4.99,0.00,22.5,21.5,00.0,31.5,24.3,20.5,0000.0,0002.86,0003.47,0002.59
2022-05-21 07:34:00,,0828.3,5.00,0.00,22.5,21.4,00.0,31.5,24.3,20.5,0000.0,0002.90,0003.36,0002.64
2022-05-21 07:35:00,,0828.4,5.00,0.00,22.5,21.4,00.0,31.5,24.2,20.5,0000.0,0002.96,0003.44,0002.69
2022-05-21 07:36:00,,0828.3,4.99,0.00,22.5,21.4,00.0,31.5,24.2,20.5,0000.0,0002.99,0003.44,0002.73
2022-05-21 07:37:00,,0828.4,5.01,0.00,22.4,21.3,00.0,31.5,24.2,20.5,0000.0,0003.04,0003.53,0002.79
2022-05-21 07:38:00,,0828.3,4.99,0.00,22.4,21.3,00.0,31.5,24.2,20.5,0000.0,0003.08,0003.57,0002.82
2022-05-21 07:39:00,,0828.4,5.00,0.00,22.4,21.3,00.0,31.5,24.2,20.5,0000.0,0003.09,0003.59,0002.84
2022-05-21 07:40:00,,0828.4,4.99,0.00,22.4,21.3,00.0,31.5,24.2,20.5,0000.0,0003.08,0003.57,0002.83
2022-05-21 07:41:00,,0828.4,5.00,0.00,22.4,21.2,00.0,31.4,24.1,20.5,0000.0,0003.08,0003.47,0002.84
2022-05-21 07:42:00,,0828.5,5.00,0.00,22.3,21.2,00.0,31.4,24.1,20.5,0000.0,0003.06,0003.39,0002.84
2022-05-21 07:43:00,,0828.4,5.00,0.00,22.3,21.2,00.0,31.4,24.1,20.6,0000.0,0003.03,0003.32,0002.85
2022-05-21 07:44:00,,0828.4,5.01,0.00,22.3,21.2,00.0,31.4,24.1,20.6,0000.0,0003.00,0003.28,0002.83
2022-05-21 07:45:00,,0828.4,4.99,0.00,22.3,21.4,00.0,31.4,24.2,20.5,0000.0,0003.01,0003.30,0002.82
2022-05-21 07:46:00,,0828.3,5.01,0.00,22.4,21.7,00.0,31.3,24.5,20.4,0000.0,0002.96,0003.20,0002.79
2022-05-21 07:47:00,,0828.3,5.00,0.00,22.6,22.1,00.0,31.4,24.7,20.3,0000.0,0002.94,0003.23,0002.78
2022-05-21 07:48:00,,0828.3,5.00,0.00,22.6,22.2,00.0,31.4,24.7,20.2,0000.0,0002.92,0003.21,0002.76
2022-05-21 07:49:00,,0828.3,5.01,0.00,22.6,22.2,00.0,31.5,24.7,20.1,0000.0,0002.94,0003.86,0002.74
2022-05-21 07:50:00,,0828.3,4.99,0.00,22.6,22.2,00.0,31.5,24.6,20.1,0000.0,0002.92,0004.36,0002.73
2022-05-21 07:51:00,,0828.4,5.01,0.00,22.6,22.1,00.0,31.5,24.6,20.1,0000.0,0002.95,0004.42,0002.74
2022-05-21 07:52:00,,0828.3,4.99,0.00,22.6,22.1,00.0,31.5,24.6,20.1,0000.0,0002.94,0004.38,0002.71
2022-05-21 07:53:00,,0828.3,5.01,0.00,22.7,22.0,00.0,31.5,24.6,20.0,0000.0,0002.93,0004.37,0002.70
2022-05-21 07:54:00,,0828.3,4.99,0.00,22.7,22.0,00.0,31.5,24.6,20.0,0000.0,0002.94,0004.43,0002.69
2022-05-21 07:55:00,,0828.3,5.01,0.00,22.7,21.9,00.0,31.5,24.5,20.0,0000.0,0002.96,0004.48,0002.69
2022-05-21 07:56:00,,0828.2,5.00,0.00,22.6,21.9,00.0,31.6,24.5,20.0,0000.0,0002.93,0004.41,0002.68
2022-05-21 07:57:00,,0828.2,4.99,0.00,22.7,21.8,00.0,31.6,24.5,20.0,0000.0,0002.94,0004.44,0002.68
2022-05-21 07:58:00,,0828.3,5.00,0.00,22.6,21.8,00.0,31.6,24.5,20.0,0000.0,0002.94,0004.40,0002.67
2022-05-21 07:59:00,,0828.2,5.00,0.00,22.6,21.8,00.0,31.6,24.5,20.0,0000.0,0002.94,0004.36,0002.69
